Вернуться в каталог

COSMOS 1275 DEB

АктивенPO
NORAD 18275·DEBRIS·🇷🇺 Russia

Запущен Jun 4, 1981 с Plesetsk Cosmodrome

Loading…

Ближайшие Пролёты (ближайшие 24 часа)

TLE

СвежийSource: Space-Track

Эпоха: Sep 14, 2026, 14:33 UTC

1 18275U 81053LQ  26257.60686316  .00001321  00000-0  14088-2 0  9998
2 18275  82.9253 117.6811 0133554  59.8451 330.0493 13.69497523 68580

Отслеживайте COSMOS 1275 DEB в реальном времени с AllMySat

Download on the App Store